Terminal Aerodrome Forecast
Issued by NWS Mt. Holly, NJ

Home | Current Version | Previous Version | Text Only | Print | Product List | Glossary On
Versions: 1 2 3 4 5 6 7 8 9 10 11 12 13 14 15 16 17 18 19 20 21 22 23 24 25 26 27 28 29 30 31 32 33 34 35 36 37 38 39 40 41 42 43 44 45 46 47 48 49 50
000
FTAK31 PANC 012152 AAA
TAFABE
TAF AMD
PABE 012152Z 0122/0218 22022G32KT P6SM VCSH SCT023 OVC030
      TEMPO 0122/0202 5SM -RA BR BKN023 OVC030
     FM020400 22020G30KT P6SM VCFG FEW007 BKN012 OVC020
     FM020800 23016G26KT 5SM BR OVC007
     FM021300 26008KT 3SM BR OVC005=

USA.gov is the U.S. government's official web portal to all federal, state and local government web resources and services.